Location: Most
(50.5133°N, 13.6207°E)
Time: 06:08:38
(UTC+01:00)

ZACube-1 - Pass Details

Date: 10 December 2021
Orbit: 583 x 664 km, 97.6° (Epoch: 19 January)

Event Time Altitude Azimuth Distance (km) Brightness Sun altitude
Rises 16:45:40 0° 210° (SSW) 2,890 ? -6.8°
Reaches altitude 10° 16:48:32 10° 232° (SW) 2,007 ? -7.2°
Maximum altitude 16:51:21 17° 272° (W) 1,632 ? -7.6°
Drops below altitude 10° 16:54:13 10° 312° (NW) 2,050 ? -8.0°
Sets 16:57:13 0° 333° (NNW) 2,982 ? -8.4°
